{"data":{"norad_id":39127,"intl_designator":"2013-014A","name":"ANIK G1","alt_names":[],"object_type":"PAYLOAD","status":"ACTIVE","operator":null,"country":"CA","launch_date":"2013-04-15","launch_site_code":"TYMSC","launch_vehicle":null,"mission":null,"orbit_class":"UNKNOWN","rcs_meters":212.1155,"size_class":null,"mass_kg":null,"dimensions":null,"purposes":["comms"],"wikipedia_slug":null,"has_3d_model":false,"image_url":null,"decayed_at":null,"tle_current":{"epoch":"2026-09-20T03:56:22.408800Z","epoch_age_seconds":50934,"freshness":"FRESH","line1":"1 39127U 13014A   26263.16414825 -.00000078  00000+0  00000+0 0  9995","line2":"2 39127   0.0174 177.1642 0002882   9.3649 124.3398  1.00272289 49201","mean_motion":1.00272289,"eccentricity":0.0002882,"inclination_deg":0.0174,"raan_deg":177.1642,"arg_perigee_deg":9.3649,"mean_anomaly_deg":124.3398,"bstar":0,"rev_number":4920,"period_min":1436.0896857556,"perigee_km":35774.301837255,"apogee_km":35798.605507318,"semimajor_km":42164.590672287,"source":"CELESTRAK","updated_at":"2026-09-20T09:00:35.203438Z"}}}